Regional Weather Roundup
Issued by NWS

Home | Current Version | Previous Version | Text Only | Print | Product List | Glossary On
Versions: 1 2 3 4 5 6 7 8 9 10 11 12 13 14 15 16 17 18 19 20 21 22 23 24 25 26 27 28 29 30 31 32 33 34 35 36 37 38 39 40 41 42 43 44 45 46 47 48 49 50
000
ASUS43 KDTX 231610
RWRMI
MICHIGAN HOURLY REGIONAL WEATHER ROUNDUP
NATIONAL WEATHER SERVICE DETROIT/PONTIAC MI
1200 PM EDT SAT MAY 23 2015

NOTE: "FAIR" INDICATES FEW OR NO CLOUDS BELOW 12,000 FEET WITH NO
SIGNIFICANT WEATHER AND/OR OBSTRUCTION TO VISIBILITY.

MIZ047>049-052>055-059>063-066>070-074>076-081>083-231700-
SOUTHEAST LOWER MICHIGAN

CITY           SKY/WX    TMP DP  RH WIND       PRES   REMARKS
ADRIAN         SUNNY     68  36  30 W8        30.40S
ALMA           SUNNY     69  36  29 SW12      30.36F
ANN ARBOR      SUNNY     68  39  34 SW9       30.39F
BAD AXE        SUNNY     66  31  26 W12       30.36F
CARO           SUNNY     67  37  32 SW7       30.36F
DETROIT CITY   SUNNY     66  37  34 SW8       30.40S
DETROIT        MOSUNNY   69  41  36 SW7       30.40F
FLINT          SUNNY     70  35  27 SW10      30.37F
GROSSE ILE     SUNNY     63  46  55 SE7       30.39S
HILLSDALE      SUNNY     68  35  29 SW5       30.39S
HOWELL         SUNNY     68  35  29 SW7       30.38S

CITY           SKY/WX    TMP DP  RH WIND       PRES   REMARKS
JACKSON        SUNNY     68  36  30 S8        30.39S
LAMBERTVILLE   SUNNY     70  34  26 SW5       30.40S
LANSING        SUNNY     70  36  28 S10       30.38S
LAPEER         FAIR      69  29  22 W8        30.37F
MASON          SUNNY     66  38  36 S6        30.38S
MONROE         SUNNY     68  36  30 S7        30.38S
MT. CLEMENS    MOSUNNY   64  47  53 S7        30.37F
PONTIAC        MOSUNNY   67  36  31 SW9       30.38F
PORT HOPE        N/A     66  32  28 W8G18     30.34F
PORT HURON     SUNNY     64  37  36 S10G16    30.39S
TRI CITIES     SUNNY     69  38  32 SW12      30.36F
MIDLAND        FAIR      70  35  27 SW13G18   30.34F
TROY           SUNNY     68  35  30 SW9       30.40F
SAGINAW HB     SUNNY     70  32  24 SW8       30.35F
$$
MIZ043>046-050>051-056>058-064>065-071>073-077>080-231700-
SOUTHWEST LOWER MICHIGAN

CITY           SKY/WX    TMP DP  RH WIND       PRES   REMARKS
BATTLE CREEK   SUNNY     68  33  27 SW6       30.38F
BENTON HARBOR  SUNNY     70  37  29 SE8       30.35F
BIG RAPIDS     SUNNY     68  26  20 W6        30.34F
COLDWATER      SUNNY     67  32  26 CALM      30.38S
FREMONT        FAIR      70  28  21 SW10      30.35F
HOLLAND        SUNNY     71  36  27 S7        30.36F
GRAND RAPIDS   MOSUNNY   70  34  26 SW10      30.36F
IONIA          FAIR      70  31  24 SW8       30.36S
KALAMAZOO      SUNNY     70  34  26 SW8       30.38F
LUDINGTON      SUNNY     61  35  37 SW12G24   30.36S
MARSHALL       SUNNY     68  34  28 SE7       30.37F
MOUNT PLEASANT SUNNY     69  36  30 SW7       30.35S
MUSKEGON       SUNNY     68  30  24 SW15      30.36F
SOUTH HAVEN    SUNNY     71  31  23 S5        30.35F
$$
MIZ016>042-231700-
NORTHERN LOWER MICHIGAN

CITY           SKY/WX    TMP DP  RH WIND       PRES   REMARKS
ALPENA         SUNNY     69  32  25 SW10G20   30.28F
BEAVER ISLAND  SUNNY     59  32  36 SW16G28   30.27S
BELLAIRE       SUNNY     66  31  26 SW9G16    30.30F
CADILLAC       SUNNY     68  33  27 SW8       30.32F
CHARLEVOIX     SUNNY     65  30  27 SW23G30   30.30F
FRANKFORT      MOSUNNY   63  23  21 SW14      30.34F
GAYLORD        SUNNY     67  31  26 SW18G30   30.29F
GRAYLING       SUNNY     70  32  24 SW10G17   30.31F
HARBOR SPRINGS SUNNY     64  31  29 W10G16    30.28F
HOUGHTON LAKE  SUNNY     68  36  30 W12       30.33F
MANISTEE       MOSUNNY   66  30  26 W9G18     30.35S
OSCODA         SUNNY     69  33  26 SW15G22   30.31F
PELLSTON       SUNNY     66  26  22 W14G35    30.27F
ROGERS CITY    SUNNY     70  33  25 W12G21    30.26F
TRAVERSE CITY  MOSUNNY   69  34  27 SW10      30.30F
$$
MIZ007>008-015-231700-
EASTERN UPPER MICHIGAN

CITY           SKY/WX    TMP DP  RH WIND       PRES   REMARKS
KINROSS        PTSUNNY   63  36  36 SW16      30.22F
MACKINAC ISLAN SUNNY     58  33  38 W16G28    30.27S
NEWBERRY       SUNNY     67  40  37 SW14G20   30.21F
S. S. MARIE    PTSUNNY   65  37  35 SW10      30.19F
MUNISING         N/A     75  34  22 VRB7G20   30.17F
$$
MIZ004>006-011>014-085-231700-
CENTRAL UPPER MICHIGAN

CITY           SKY/WX    TMP DP  RH WIND       PRES   REMARKS
MANISTIQUE     SUNNY     53  41  62 SW12      30.24S
ESCANABA       SUNNY     61  43  51 S15       30.23F
MENOMINEE      MOSUNNY   68  37  32 W8        30.26F
SAWYER-GWINN   SUNNY     72  34  25 W16G22    30.20F
$$
MIZ001>003-009>011-084-231700-
WESTERN UPPER MICHIGAN

CITY           SKY/WX    TMP DP  RH WIND       PRES   REMARKS
IRON MOUNTAIN  SUNNY     75  33  21 S10       30.22F
HOUGHTON       MOSUNNY   72  35  25 W24G33    30.17S
COPPER HARBOR    N/A     74  35  24 NW14G23   30.12S
IRONWOOD       SUNNY     72  37  28 SW13      30.20S
$$

ABBREVIATIONS USED IN REMARKS
   TC - TEMPERATURE IN CELSIUS
  WCI - WIND CHILL INDEX
   HX - HEAT INDEX
  VSB - VISIBILITY




USA.gov is the U.S. government's official web portal to all federal, state and local government web resources and services.